This demonstration page uses our WeatherBlox Daily Observations layout. Learn more.

41.55636, -103.73856

Hourly Observations for March 11, 2019

Temp ( °F °C ) Dew Point ( °F °C ) Humidity (%) Winds ( mph kmh ) Pressure ( in mb ) Visibility ( mi km ) Precip ( " mm )
12:53 am 00:53 Partly Cloudy 31 -0.6 26 -3.3 82 82 N 5 7 30.21 1023 10 16.09344 0 0
1:53 am 01:53 Clear 27 -2.8 24 -4.4 89 89 N 6 9 30.24 1024 10 16.09344 0 0
2:53 am 02:53 Clear 24 -4.4 20 -6.7 84 84 N 5 7 30.24 1024 10 16.09344 0 0
3:53 am 03:53 Clear 22 -5.6 19 -7.2 89 89 NW 5 7 30.24 1024 10 16.09344 0 0
4:53 am 04:53 Clear 19 -7.2 17 -8.3 92 92 NNW 5 7 30.24 1024 10 16.09344 0 0
5:53 am 05:53 Clear 20 -6.7 18 -7.8 92 92 NNW 5 7 30.27 1025 10 16.09344 0 0
6:53 am 06:53 Clear 17 -8.3 17 -8.3 100 100 NNW 5 7 30.27 1025 10 16.09344 0 0
7:53 am 07:53 Sunny 16 -8.9 16 -8.9 100 100 W 3 6 30.3 1026 9 14.484096 0 0
8:53 am 08:53 Sunny 24 -4.4 20 -6.7 84 84 NW 3 6 30.3 1026 10 16.09344 0 0
9:53 am 09:53 Sunny 26 -3.3 24 -4.4 92 92 SW 3 6 30.27 1025 10 16.09344 0 0
10:53 am 10:53 Sunny 32 0 25 -3.9 75 75 Calm 30.24 1024 10 16.09344 0 0
11:53 am 11:53 Sunny 35 1.7 26 -3.3 70 70 Calm 30.24 1024 10 16.09344 0 0
12:53 pm 12:53 Sunny 36 2.2 25 -3.9 64 64 E 5 7 30.21 1023 10 16.09344 0 0
1:53 pm 13:53 Sunny 37 2.8 28 -2.2 70 70 E 6 9 30.18 1022 10 16.09344 0 0
2:53 pm 14:53 Sunny 39 3.9 31 -0.6 73 73 E 7 11 30.15 1021 10 16.09344 0 0
3:53 pm 15:53 Sunny 41 5 33 0.6 73 73 E 6 9 30.12 1020 10 16.09344 0 0
4:53 pm 16:53 Sunny 42 5.6 35 1.7 76 76 ESE 5 7 30.12 1020 10 16.09344 0 0
5:53 pm 17:53 Sunny 41 5 35 1.7 79 79 SE 7 11 30.09 1019 10 16.09344 0 0
6:53 pm 18:53 Sunny 37 2.8 32 0 82 82 Calm 30.12 1020 10 16.09344 0 0
7:53 pm 19:53 Clear 38 3.3 34 1.1 86 86 ESE 10 17 30.09 1019 10 16.09344 0 0
8:53 pm 20:53 Clear 36 2.2 33 0.6 89 89 SE 8 13 30.09 1019 10 16.09344 0 0
9:53 pm 21:53 Clear 33 0.6 32 0 96 96 ESE 9 15 30.09 1019 10 16.09344 0 0
11:53 pm 23:53 Clear with Mist and Fog 30 -1.1 30 -1.1 100 100 ENE 5 7 30.06 1018 6 9.656064 0 0

Powered by AerisWeather